• MPC Preparation (Info)

  • MPEC 2023-R156 : 2023 RP5

    The following Minor Planet Electronic Circular may be linked-to from your own Web pages, but must not otherwise be redistributed electronically.

    A form allowing access to any MPEC is at the bottom of this page.


    Read MPEC 2023-R155 Read MPEC 2023-R157


    M.P.E.C. 2023-R156                           Issued 2023 September 12, 11:30 UT
    
         The Minor Planet Electronic Circulars contain information on unusual
             minor planets, routine data on comets and natural satellites,
             and occasional editorial announcements.  They are published
        on behalf of Division F of the International Astronomical Union by the
              Minor Planet Center, Smithsonian Astrophysical Observatory,
                              Cambridge, MA 02138, U.S.A.
    			  
                 Prepared using the Tamkin Foundation Computer Network
    
                                  MPC@CFA.HARVARD.EDU
                URL https://www.minorplanetcenter.net/    ISSN 1523-6714
    
                                    2023 RP5                                 
    
    
    Observations:
         K23R05P  C2023 09 04.45720322 37 33.801+07 24 32.16         21.82GVER156F51
         K23R05P  C2023 09 04.46792422 37 34.163+07 25 01.58         22.34GVER156F51
         K23R05P  C2023 09 04.47859922 37 34.479+07 25 31.06         22.18GVER156F51
         K23R05P  C2023 09 04.48924222 37 34.827+07 26 00.84         21.42GVER156F51
         K23R05P  C2023 09 05.42535222 38 22.766+08 10 01.85         21.90GVER156F51
         K23R05P  C2023 09 05.43963322 38 23.249+08 10 43.04         21.70GVER156F51
         K23R05P* C2023 09 11.46363122 45 02.665+13 49 55.62         21.31wXER156F51
         K23R05P  C2023 09 11.47728822 45 03.580+13 50 50.31         20.66wXER156F51
         K23R05P  C2023 09 11.49094222 45 04.426+13 51 42.57         21.31wXER156F51
         K23R05P  C2023 09 11.50463922 45 05.330+13 52 35.94         21.15wXER156F51
         K23R05P  C2023 09 11.59883622 45 12.059+13 58 42.84         20.91GVER156F51
         K23R05P  C2023 09 11.59947922 45 12.105+13 58 45.30         21.11GVER156F51
         K23R05P 1C2023 09 11.82972 22 45 36.79 +14 13 42.6          20.7 VXER156033
         K23R05P 1C2023 09 11.83185 22 45 36.95 +14 13 51.3          20.5 VXER156033
         K23R05P 1C2023 09 11.83399 22 45 37.11 +14 13 59.9          20.6 VXER156033
         K23R05P KC2023 09 12.05106722 45 52.95 +14 28 39.4          21.1 GVER156L01
         K23R05P KC2023 09 12.05317022 45 53.08 +14 28 48.4          21.0 GVER156L01
         K23R05P KC2023 09 12.05569422 45 53.23 +14 28 58.7          20.7 GVER156L01
    
    Observer details:
    033 Karl Schwarzschild Observatory, Tautenburg.  Observers S. Melnikov, C.
        Hoegner, F. Ludwig, M. Hartmann, B. Stecklum.  Measurer B. Stecklum.
        1.34-m f/3 Schmidt + CCD.
    F51 Pan-STARRS 1, Haleakala.  Observers J. Bulger, K. Chambers, T. Lowe, P.
        Minguez, A. Schultz, I. Smith.  Measurers S. Chastel, J. Fairlamb, M.
        Huber, Y. Ramanjooloo, R. Wainscoat, R. Weryk, K. Chambers, T. de Boer, J.
        Bulger, H. Gao, C.-C. Lin, T. Lowe, E. Magnier, P. Minguez, A. Schultz, I.
        Smith.  1.8-m Ritchey-Chretien + CCD.
    L01 Visnjan Observatory, Tican.  Observer K. Korlevic.  1.0-m f/2.9 reflector
        + CCD.
    
    Orbital elements:
    2023 RP5                                                 Earth MOID = 0.0728 AU
    Epoch 2023 Sept. 13.0 TT = JDT 2460200.5                Veres                   
    M 351.96079              (2000.0)            P               Q                  
    n   0.20665087     Peri.   94.17888     +0.83505426     -0.54735108             
    a   2.8334217      Node   299.01542     +0.47618248     +0.76967470             
    e   0.6368992      Incl.    3.64521     +0.27556237     +0.32864517             
    P   4.77           H   24.05          G   0.15           U   9                  
    Residuals in seconds of arc
    230904 F51  0.1-  0.1-    230911 F51  0.4+  0.2-    230911 033  0.5+  0.0
    230904 F51  0.3+  0.1-    230911 F51  0.9+  1.1+    230911 033  0.4+  0.1+
    230904 F51  0.1-  0.1+    230911 F51  0.3+  0.1+    230911 033  0.4+  0.1+
    230904 F51  0.1-  0.6+    230911 F51  0.3+  0.0     230912 L01  0.1+  0.6-
    230905 F51  0.0   0.3-    230911 F51  0.3+  0.2+    230912 L01  0.4-  0.0
    230905 F51  0.1-  0.3-    230911 F51  0.3+  0.1+    230912 L01  1.0-  0.1+
    
    Ephemeris:
    2023 RP5                 a,e,i = 2.83, 0.64, 4                   q = 1.0288
    Date    TT    R. A. (2000) Decl.     Delta      r    Elong.  Phase     V
    2023 08 13    22 26 28.6 -03 33 28   0.3698  1.3695   161.7    13.4    23.3
    ...
    2023 08 28    22 32 49.0 +02 35 53   0.2510  1.2564   167.2    10.2    22.2
    ...
    2023 09 05    22 38 01.1 +07 49 54   0.1991  1.2015   164.6    12.9    21.7
    ...
    2023 09 11    22 44 25.3 +13 19 58   0.1651  1.1638   160.3    16.9    21.4
    2023 09 12    22 45 50.1 +14 25 40   0.1599  1.1578   159.4    17.8    21.3
    2023 09 13    22 47 22.7 +15 34 58   0.1548  1.1519   158.5    18.6    21.3
    ...
    2023 09 19    23 00 22.1 +23 59 31   0.1274  1.1190   152.2    24.8    21.0
    ...
    2023 09 27    23 36 45.8 +40 02 03   0.1005  1.0819   140.5    36.2    20.7
    ...
    2023 10 12    04 21 22.9 +66 14 36   0.09418 1.0375   112.1    63.0    21.2
    
    M. P. C. Staff               (C) Copyright 2023 MPC           M.P.E.C. 2023-R156
    


    Read MPEC 2023-R155 Read MPEC 2023-R157


    MPEC number:

    Enter an MPEC number in one of the following forms:

    • 1997-B01 (the full form)
    • J97B01 (the packed version of the full form)
    • B01 (the abbreviated form)